Estación de San Julian
Ultimos registro cada 15 minutos 71
| N° | Estación | Fecha / Hora | Temperatura | Humedad | Lluvia | Velocidad | Dirección | Radiación | Presion |
| 71 | San Julian | 10-05-2026 17:30 | 17 | 63,4 | 0 | 0 | 243 | 14,4 | 981,6 |
| 70 | San Julian | 10-05-2026 17:15 | 18,7 | 59,1 | 0 | 0 | 237 | 109,4 | 981,7 |
| 69 | San Julian | 10-05-2026 17:00 | 19,2 | 57,8 | 0 | 0 | 233 | 140,6 | 981,5 |
| 68 | San Julian | 10-05-2026 16:45 | 20,1 | 54,3 | 0 | 0 | 230 | 141,9 | 981,5 |
| 67 | San Julian | 10-05-2026 16:30 | 21,7 | 51,2 | 0 | 0 | 232 | 221,9 | 981,4 |
| 66 | San Julian | 10-05-2026 16:15 | 21,4 | 50,3 | 0 | 0 | 239 | 258,1 | 981,4 |
| 65 | San Julian | 10-05-2026 16:00 | 21,6 | 48 | 0 | 0 | 239 | 291,9 | 981,4 |
| 64 | San Julian | 10-05-2026 15:45 | 21,6 | 48,2 | 0 | 0 | 243 | 325,6 | 981,3 |
| 63 | San Julian | 10-05-2026 15:30 | 22,5 | 46 | 0 | 0 | 240 | 356,9 | 981,4 |
| 62 | San Julian | 10-05-2026 15:15 | 22,4 | 47,1 | 0 | 0 | 237 | 388,1 | 981,3 |
| 61 | San Julian | 10-05-2026 15:00 | 22,7 | 45,4 | 0 | 0 | 237 | 415,6 | 981,3 |
| 60 | San Julian | 10-05-2026 14:45 | 22,7 | 44,7 | 0 | 0 | 227 | 440,6 | 981,5 |
| 59 | San Julian | 10-05-2026 14:30 | 22,8 | 46,9 | 0 | 0 | 234 | 461,9 | 981,6 |
| 58 | San Julian | 10-05-2026 14:15 | 22,6 | 47,3 | 0 | 0 | 232 | 485,6 | 981,8 |
| 57 | San Julian | 10-05-2026 14:00 | 22,3 | 48,5 | 0 | 0 | 230 | 501,9 | 981,7 |
| 56 | San Julian | 10-05-2026 13:45 | 21,8 | 48,8 | 0 | 0 | 230 | 516,9 | 982 |
| 55 | San Julian | 10-05-2026 13:30 | 21,7 | 48,4 | 0 | 0 | 233 | 526,9 | 982 |
| 54 | San Julian | 10-05-2026 13:15 | 21,2 | 49,9 | 0 | 0 | 229 | 534,4 | 982,2 |
| 53 | San Julian | 10-05-2026 13:00 | 21 | 50,4 | 0 | 0 | 230 | 540,6 | 982,4 |
| 52 | San Julian | 10-05-2026 12:45 | 20,2 | 51,9 | 0 | 0 | 227 | 541,9 | 982,5 |
| 51 | San Julian | 10-05-2026 12:30 | 20 | 52,6 | 0 | 0 | 229 | 538,1 | 982,7 |
| 50 | San Julian | 10-05-2026 12:15 | 19 | 54,9 | 0 | 0 | 234 | 533,1 | 982,9 |
| 49 | San Julian | 10-05-2026 12:00 | 18,6 | 55 | 0 | 0 | 244 | 524,4 | 982,9 |
| 48 | San Julian | 10-05-2026 11:45 | 18,7 | 54,9 | 0 | 0 | 237 | 514,4 | 983,1 |
| 47 | San Julian | 10-05-2026 11:30 | 18,2 | 57 | 0 | 0 | 233 | 495,6 | 983,1 |
| 46 | San Julian | 10-05-2026 11:15 | 17,7 | 57,9 | 0 | 0 | 233 | 479,4 | 983,3 |
| 45 | San Julian | 10-05-2026 11:00 | 17,6 | 60,7 | 0 | 0 | 234 | 456,9 | 982,9 |
| 44 | San Julian | 10-05-2026 10:45 | 17,4 | 59,8 | 0 | 0 | 237 | 433,1 | 983 |
| 43 | San Julian | 10-05-2026 10:30 | 16 | 62,5 | 0 | 0 | 246 | 406,9 | 982,9 |
| 42 | San Julian | 10-05-2026 10:15 | 15 | 65,2 | 0 | 0 | 263 | 378,1 | 982,9 |
| 41 | San Julian | 10-05-2026 10:00 | 14,2 | 68,1 | 0 | 0 | 251 | 346,9 | 982,8 |
| 40 | San Julian | 10-05-2026 09:45 | 13,4 | 68,4 | 0 | 0 | 14 | 314,4 | 982,7 |
| 39 | San Julian | 10-05-2026 09:30 | 12,4 | 68,9 | 0 | 0 | 14 | 283,1 | 982,5 |
| 38 | San Julian | 10-05-2026 09:15 | 12,8 | 69,3 | 0 | 0 | 20 | 248,1 | 982,5 |
| 37 | San Julian | 10-05-2026 09:00 | 11,6 | 71,1 | 0 | 0 | 21 | 26,9 | 982,2 |
| 36 | San Julian | 10-05-2026 08:45 | 10,7 | 69,6 | 0 | 0 | 38 | 179,4 | 982 |
| 35 | San Julian | 10-05-2026 08:30 | 12 | 63,8 | 0 | 0 | 38 | 145,6 | 981,8 |
| 34 | San Julian | 10-05-2026 08:15 | 12,2 | 64,6 | 0 | 0 | 46 | 110,6 | 981,7 |
| 33 | San Julian | 10-05-2026 08:00 | 9,9 | 73,3 | 0 | 0 | 66 | 73,1 | 981,8 |
| 32 | San Julian | 10-05-2026 07:45 | 8,4 | 79 | 0 | 0 | 66 | 11,9 | 981,6 |
| 31 | San Julian | 10-05-2026 07:30 | 7,7 | 84,7 | 0 | 0 | 63 | 4,4 | 981,6 |
| 30 | San Julian | 10-05-2026 07:15 | 7,5 | 84,2 | 0 | 0 | 51 | 0,6 | 981,7 |
| 29 | San Julian | 10-05-2026 07:00 | 8,2 | 81,7 | 0 | 0 | 65 | 0,6 | 981,8 |
| 28 | San Julian | 10-05-2026 06:45 | 7,1 | 84,1 | 0 | 0 | 60 | 0,6 | 981,8 |
| 27 | San Julian | 10-05-2026 06:30 | 8,9 | 79,8 | 0 | 0 | 52 | 0,6 | 981,6 |
| 26 | San Julian | 10-05-2026 06:15 | 8,9 | 80,3 | 0 | 0 | 35 | 0,6 | 981,6 |
| 25 | San Julian | 10-05-2026 06:00 | 9,6 | 79,1 | 0 | 0 | 39 | 0,6 | 981,6 |
| 24 | San Julian | 10-05-2026 05:45 | 9,3 | 81,9 | 0 | 0 | 42 | 0,6 | 981,6 |
| 23 | San Julian | 10-05-2026 05:30 | 9 | 83,1 | 0 | 0 | 55 | 0,6 | 981,6 |
| 22 | San Julian | 10-05-2026 05:15 | 9,6 | 83,9 | 0 | 0 | 53 | 0,6 | 981,7 |
| 21 | San Julian | 10-05-2026 05:00 | 9,4 | 86,1 | 0 | 0 | 69 | 0,6 | 981,8 |
| 20 | San Julian | 10-05-2026 04:45 | 8,2 | 89 | 0 | 0 | 62 | 0,6 | 981,9 |
| 19 | San Julian | 10-05-2026 04:30 | 7,9 | 90,2 | 0 | 0 | 55 | 0,6 | 982 |
| 18 | San Julian | 10-05-2026 04:15 | 8,4 | 87,6 | 0 | 0 | 45 | 0,6 | 982,1 |
| 17 | San Julian | 10-05-2026 04:00 | 8,2 | 91,1 | 0 | 0 | 48 | 0,6 | 982,3 |
| 16 | San Julian | 10-05-2026 03:45 | 8 | 91,3 | 0 | 0 | 46 | 0,6 | 982,4 |
| 15 | San Julian | 10-05-2026 03:30 | 8 | 92,6 | 0 | 0 | 44 | 0,6 | 982,5 |
| 14 | San Julian | 10-05-2026 03:15 | 7,6 | 92,4 | 0 | 0 | 45 | 0,6 | 982,7 |
| 13 | San Julian | 10-05-2026 03:00 | 5,4 | 91,3 | 0 | 0 | 46 | 0,6 | 982,8 |
| 12 | San Julian | 10-05-2026 02:45 | 6 | 91,2 | 0 | 0 | 46 | 0,6 | 982,8 |
| 11 | San Julian | 10-05-2026 02:30 | 7 | 90,2 | 0 | 0 | 46 | 0,6 | 983,1 |
| 10 | San Julian | 10-05-2026 02:15 | 7,9 | 89,6 | 0 | 0 | 46 | 0,6 | 983,2 |
| 9 | San Julian | 10-05-2026 02:00 | 7,9 | 91,4 | 0 | 0 | 46 | 0,6 | 983,2 |
| 8 | San Julian | 10-05-2026 01:45 | 7,5 | 87 | 0 | 0 | 46 | 0,6 | 983,2 |
| 7 | San Julian | 10-05-2026 01:30 | 9,1 | 87,7 | 0 | 0 | 46 | 0,6 | 983,2 |
| 6 | San Julian | 10-05-2026 01:15 | 9,3 | 87,5 | 0 | 0 | 46 | 0,6 | 983,2 |
| 5 | San Julian | 10-05-2026 01:00 | 9,1 | 88,1 | 0 | 0 | 48 | 0,6 | 983,2 |
| 4 | San Julian | 10-05-2026 00:45 | 9,5 | 87,5 | 0 | 0 | 48 | 0,6 | 983,3 |
| 3 | San Julian | 10-05-2026 00:30 | 9,9 | 86,5 | 0 | 0 | 46 | 0,6 | 983,3 |
| 2 | San Julian | 10-05-2026 00:15 | 10,1 | 86,6 | 0 | 0 | 42 | 0,6 | 983,2 |
| 1 | San Julian | 10-05-2026 00:00 | 10,4 | 86,6 | 0 | 0 | 21 | 0,6 | 983,3 |